Air Force Academy, CO

4:20 AM MST on November 21, 2019 (GMT -0700)
Usaf Academy

Weather History for KAFF - May, 2019

Change the Weather History Date:

Thursday, May 16, 2019

  Actual Average Record
Temperature  
Mean Temperature 62 °F -  
Max Temperature 76 °F 65 °F 79 °F (2018)
Min Temperature 48 °F 39 °F 32 °F (2008)
Degree Days  
Heating Degree Days 4    
Growing Degree Days 12 (Base 50)    
Moisture  
Dew Point 32 °F    
Average Humidity 34    
Maximum Humidity 53    
Minimum Humidity 19    
Precipitation  
Precipitation 0.00 in - - ()
Sea Level Pressure  
Sea Level Pressure 29.69 in    
Wind  
Wind Speed 6 mph (ENE)    
Max Wind Speed 22 mph    
Max Gust Speed 28 mph    
Visibility 10 miles    
Events      
Averages and records for this station are not official NWS values.
T = Trace of Precipitation, MM = Missing Value Source: NWS Daily Summary

Daily Weather History Graph

Daily Weather History Graph

Search for Another Location

Airport or City:

Astronomy

May. 16, 2019 Rise Set
Actual Time 5:45 AM MDT 8:05 PM MDT
Civil Twilight 5:15 AM MDT 8:36 PM MDT
Nautical Twilight 4:38 AM MDT 9:13 PM MDT
Astronomical Twilight 3:57 AM MDT 9:54 PM MDT
Moon 5:50 PM MDT (5/16) 4:43 AM MDT (5/16)
Length of Visible Light 15h 20m
Length of Day
14h 20m
Waxing Gibbous, 94% of the Moon is Illuminated
May 16
Waxing Gibbous
May 18
Full
May 26
Last Quarter
Jun 3
New
Jun 10
First Quarter

Hourly Weather History & Observations

Time (MDT) Temp. Dew Point Humidity Pressure Visibility Wind Dir Wind Speed Gust Speed Precip Events Conditions
12:58 AM 56.1 °F 30.2 °F 37% 29.74 in 10.0 mi Calm Calm - N/A   Clear
1:58 AM 53.2 °F 30.7 °F 42% 29.76 in 10.0 mi NNE 4.6 mph - N/A   Clear
2:58 AM 48.6 °F 32.2 °F 53% 29.76 in 10.0 mi North 6.9 mph - N/A   Clear
3:58 AM 48.9 °F 32.0 °F 52% 29.75 in 10.0 mi North 9.2 mph - N/A   Clear
4:58 AM 50.2 °F 32.2 °F 50% 29.75 in 10.0 mi NNE 6.9 mph - N/A   Partly Cloudy
5:58 AM 51.3 °F 32.7 °F 49% 29.75 in 10.0 mi NNE 8.1 mph - N/A   Clear
6:58 AM 59.2 °F 34.9 °F 40% 29.75 in 10.0 mi North 5.8 mph - N/A   Partly Cloudy
7:58 AM 60.8 °F 36.9 °F 41% 29.77 in 10.0 mi Calm Calm - N/A   Partly Cloudy
8:58 AM 61.2 °F 41.4 °F 48% 29.78 in 10.0 mi Calm Calm - N/A   Mostly Cloudy
9:58 AM 66.0 °F 35.2 °F 32% 29.76 in 10.0 mi Calm Calm - N/A   Mostly Cloudy
10:56 AM 66.6 °F 34.2 °F 30% 29.76 in 10.0 mi Calm Calm - N/A   Scattered Clouds
11:56 AM 70.2 °F 33.6 °F 26% 29.73 in 10.0 mi South 4.6 mph - N/A   Scattered Clouds
12:56 PM 73.0 °F 29.7 °F 20% 29.70 in 10.0 mi SSE 10.4 mph - N/A   Scattered Clouds
1:56 PM 73.2 °F 29.7 °F 20% 29.69 in 10.0 mi SSE 15.0 mph - N/A   Scattered Clouds
2:56 PM 72.5 °F 30.4 °F 21% 29.68 in 10.0 mi SSE 12.7 mph - N/A   Mostly Cloudy
3:56 PM 72.0 °F 29.8 °F 21% 29.66 in 10.0 mi SSE 20.7 mph 24.2 mph N/A   Mostly Cloudy
4:56 PM 75.6 °F 30.4 °F 19% 29.61 in 10.0 mi SSE 21.9 mph 27.6 mph N/A   Partly Cloudy
5:56 PM 72.3 °F 28.9 °F 20% 29.61 in 10.0 mi South 18.4 mph 25.3 mph N/A   Partly Cloudy
6:02 PM 71.6 °F 30.2 °F 22% 29.61 in 10.0 mi SSE 16.1 mph 25.3 mph N/A   Partly Cloudy
7:56 PM 66.0 °F 32.0 °F 28% 29.56 in 10.0 mi Calm Calm - N/A   Clear
8:56 PM 60.6 °F 32.7 °F 35% 29.80 in 10.0 mi NNW 3.5 mph - N/A   Clear
9:56 PM 53.6 °F 33.8 °F 47% 29.60 in 10.0 mi North 4.6 mph - N/A   Clear
10:56 PM 59.0 °F 30.7 °F 34% 29.55 in 10.0 mi NNW 3.5 mph - N/A   Partly Cloudy
11:56 PM 59.4 °F 30.2 °F 33% 29.53 in 10.0 mi Calm Calm - N/A   Partly Cloudy